Dewpoint
21 21 21 23 24 21 21 23 22 25 29 29 29 29 29 29 25 30 32 37 39 44 52 53 53 53 54 56 56 54 54 56 54 53 54 52 50 49 48 48 47 46 45 44
24 23 21 19 21 25 24 23 25 26 27 30 28 29 31 29 28 25 30 35 40 45 53 53 53 54 55 56 55 54 52 50 50 49 49 48 47 47 46 45 44 44 43 43
28 26 22 22 23 25 24 25 26 26 29 29 27 29 29 28 27 26 27 31 41 46 52 52 52 52 52 52 52 51 50 49 48 48 47 46 45 45 43 43 43 42 42 41
32 26 22 24 26 25 24 23 23 25 27 29 29 29 28 27 26 26 26 30 40 47 53 53 51 51 50 50 50 50 49 48 47 46 45 44 43 42 42 42 41 41 40 39
31 25 26 27 25 24 23 23 25 23 22 21 22 25 28 31 27 29 28 32 41 50 53 51 50 49 49 49 49 49 48 47 46 45 43 42 42 41 40 39 39 38 38 36
30 29 22 25 26 28 29 24 26 25 24 24 26 22 24 31 35 36 39 49 50 52 50 50 49 48 48 47 47 47 47 46 44 43 42 41 41 40 39 39 39 38 33 29
30 30 31 34 35 31 23 24 32 31 28 28 26 26 27 34 40 43 46 50 51 51 50 49 48 47 46 45 45 44 44 42 42 42 41 41 41 41 39 35 34 31 28 26
31 29 26 36 34 29 33 35 34 36 36 33 30 34 34 37 40 43 46 48 49 49 49 47 47 46 44 43 42 42 42 41 41 41 41 40 38 35 32 30 29 27 26 24
30 24 32 36 38 41 41 39 39 38 37 38 36 34 38 40 42 44 46 46 46 46 45 44 43 43 41 41 41 41 41 40 39 38 37 34 34 31 28 26 26 26 24 23
30 26 28 33 36 32 37 36 37 40 38 38 37 36 38 40 41 42 44 44 43 43 42 42 41 41 41 41 41 39 37 35 33 32 27 26 26 27 26 25 25 25 24 23
31 32 34 36 36 35 34 35 37 38 37 37 36 39 38 39 40 41 42 41 42 42 41 40 40 39 39 38 37 34 30 27 25 23 23 22 21 22 23 23 24 24 23 23
28 33 33 34 27 29 36 32 33 36 37 38 38 37 39 39 40 39 40 40 40 40 39 38 37 36 35 34 32 27 23 23 21 21 22 17 16 17 23 24 23 23 22 21
35 37 38 30 30 34 35 37 38 38 39 38 38 39 39 39 38 38 39 40 39 36 35 33 31 30 29 27 26 24 21 21 21 20 20 18 16 16 16 21 20 19 20 21
39 40 36 37 33 38 38 38 38 38 38 38 38 40 39 38 38 38 38 34 28 25 24 24 24 24 25 25 24 23 22 22 22 22 22 21 21 22 21 20 20 20 21 21
36 40 39 40 39 37 37 37 36 37 38 37 37 37 37 35 32 28 24 21 20 19 19 20 21 22 23 23 22 21 21 22 24 24 24 24 24 24 23 23 23 22 22 22
36 37 38 38 39 38 37 37 36 35 32 29 28 26 25 24 23 22 22 22 22 20 19 19 19 22 24 25 25 25 24 25 25 24 24 23 23 23 22 22 21 20 20 18
35 33 34 35 36 34 33 32 32 29 27 25 23 22 21 19 18 18 18 20 22 22 23 23 24 25 25 26 25 24 24 24 23 23 22 22 21 21 20 20 19 18 18 17
32 33 33 33 32 31 29 27 26 25 24 23 22 21 20 19 18 18 20 21 20 20 21 22 23 23 23 23 23 23 22 22 21 20 20 19 18 18 18 17 17 16 15 13
29 28 28 28 28 27 25 24 24 23 22 21 21 21 21 21 21 20 19 18 17 16 17 20 21 21 21 21 21 20 20 19 19 18 17 17 16 17 16 15 14 14 13 14
24 24 23 23 24 24 23 23 23 22 22 21 19 18 17 17 18 17 16 15 16 16 18 18 18 18 19 19 19 18 18 17 17 16 15 14 14 14 14 14 13 13 12 12
22 22 22 21 21 22 22 22 21 19 20 20 18 17 17 18 18 17 15 13 17 18 17 17 17 17 18 18 17 16 15 15 14 14 13 13 12 12 11 11 11 10 9 8
21 21 20 21 20 20 21 21 21 20 19 19 18 17 16 16 16 16 17 14 15 16 15 14 15 16 17 17 16 15 14 13 12 12 11 11 10 9 9 8 9 9 8 7
21 21 21 20 20 20 20 21 20 20 19 18 18 18 17 17 18 14 11 15 14 14 13 13 14 15 14 13 12 11 10 10 9 8 7 6 7 6 6 6 6 6 6 5
22 22 22 22 21 18 17 19 19 19 19 18 18 18 17 14 15 15 15 14 12 11 12 13 12 11 10 9 8 8 8 7 6 5 5 4 3 2 2 3 3 3 2 1
17 17 18 17 17 18 18 18 17 17 16 16 17 17 17 16 14 14 13 12 11 11 10 8 7 6 6 6 6 6 6 5 5 4 3 1 1 0 0 0 0 0 0 -0
15 14 14 14 15 15 16 15 13 14 13 11 11 13 14 15 14 13 12 11 11 10 9 8 6 5 5 5 3 2 2 2 2 2 -0 -0 -1 -2 -3 -3 -4 -4 -4 -4
13 13 11 11 12 12 12 11 10 9 9 7 6 8 10 10 10 8 7 6 5 4 3 3 2 1 -1 -1 1 0 -1 -2 -2 -3 -3 -3 -4 -4 -4 -5 -6 -6 -7 -7
Wind_Speed
24 21 18 12 13 24 26 21 19 16 15 16 21 20 23 21 15 17 18 19 19 19 18 15 16 17 22 27 29 24 16 17 17 16 15 18 18 18 16 16 14 14 15 14
21 18 25 25 27 23 17 15 16 20 20 19 22 22 19 23 24 25 26 25 23 18 19 17 17 17 17 18 15 17 17 17 18 19 18 18 18 17 17 16 15 16 16 17
24 18 23 25 31 22 15 10 10 18 20 23 23 21 24 24 23 25 26 25 22 24 24 23 22 24 27 24 20 19 19 19 19 19 18 17 18 18 18 18 17 17 17 17
10 14 21 32 14 16 22 22 21 15 17 22 24 25 20 25 28 28 26 23 24 24 21 19 18 17 18 21 22 23 21 20 19 19 19 20 20 19 19 19 20 20 18 17
9 17 13 20 12 25 26 23 17 14 16 18 17 11 7 11 19 27 24 20 23 21 18 19 19 19 20 18 19 21 22 22 22 22 23 22 22 22 19 20 18 18 17 17
6 13 23 7 16 7 0 18 6 7 7 11 5 8 12 12 12 15 14 16 19 18 20 22 20 20 21 19 19 19 21 23 22 21 21 22 22 21 18 18 17 17 16 15
10 14 11 11 6 4 19 13 5 1 8 16 10 17 13 14 9 14 21 21 19 20 23 22 22 23 21 19 19 17 17 18 20 19 20 20 20 16 16 17 18 18 19 14
3 7 8 1 6 2 7 1 8 12 18 14 15 9 12 19 19 21 22 20 19 21 19 18 19 20 20 18 16 19 19 19 19 18 17 17 18 17 19 20 21 19 20 16
15 12 15 3 10 3 6 7 8 8 15 12 12 9 15 12 17 20 22 21 18 21 20 17 17 19 20 18 21 20 20 18 18 17 16 18 19 18 18 18 20 18 17 16
7 13 17 12 4 7 8 19 12 7 14 13 12 10 11 15 18 17 16 20 18 21 21 19 17 16 20 21 21 21 19 18 17 17 16 15 14 13 16 16 16 15 15 15
13 10 4 3 8 11 14 10 7 2 7 16 16 18 18 18 19 19 19 16 19 20 19 18 18 19 19 20 21 20 19 17 16 16 18 18 17 12 11 9 9 16 12 14
12 11 11 9 3 10 11 12 5 3 1 12 17 20 16 17 15 18 18 17 17 18 20 18 18 19 18 20 23 23 20 17 17 18 16 16 18 18 20 17 19 17 14 13
8 13 11 12 15 12 16 12 2 1 3 6 14 14 19 15 13 16 19 18 17 18 19 20 20 19 17 20 23 22 23 19 18 17 16 16 14 14 15 12 15 14 13 13
20 17 5 8 8 3 10 8 6 3 5 6 6 5 7 13 18 17 15 17 23 24 20 20 22 19 15 21 24 23 23 21 18 15 15 13 12 12 10 8 7 5 5 7
28 17 10 13 12 7 7 6 11 13 13 15 16 10 16 22 22 21 21 23 24 27 24 23 25 21 18 24 26 23 22 20 20 19 16 15 13 11 9 8 6 5 5 6
20 15 18 20 18 18 14 13 12 12 14 16 20 22 22 26 27 25 21 17 28 25 21 25 26 19 21 26 27 23 20 20 17 15 13 12 11 9 6 5 5 4 6 8
12 15 18 17 15 16 15 14 13 14 15 20 19 19 23 27 29 28 27 25 28 28 23 24 23 21 21 20 19 15 15 13 14 12 11 9 8 8 6 5 3 3 3 3
11 10 10 9 10 9 12 15 16 17 17 18 21 24 25 26 27 26 25 25 29 28 23 20 20 20 21 18 16 15 14 12 12 11 10 8 7 6 4 3 3 5 4 3
14 14 14 13 13 13 15 16 17 17 19 20 25 26 26 25 24 23 22 25 24 24 18 20 22 22 20 18 15 13 13 12 11 10 9 7 6 4 5 4 3 2 1 1
18 18 19 20 20 18 18 18 20 22 21 23 25 26 27 24 23 25 26 26 19 15 17 19 20 20 18 17 16 13 13 13 11 10 8 7 5 5 5 5 4 3 4 4
20 21 21 22 23 22 21 20 23 24 23 24 26 25 24 21 20 20 23 24 18 19 19 18 17 14 13 13 13 12 12 11 11 9 9 9 9 8 7 6 5 4 4 4
20 21 21 22 24 25 23 23 24 24 25 24 23 23 25 23 24 24 21 20 15 17 15 15 14 16 15 15 13 14 14 13 12 11 11 11 11 10 9 9 7 2 3 2
21 21 21 22 23 24 24 24 24 25 25 23 22 21 21 17 13 17 19 14 16 17 16 15 17 19 17 14 13 13 13 13 12 11 11 11 11 12 11 11 11 9 5 0
19 19 18 18 20 24 26 22 24 23 24 24 23 19 17 18 19 17 18 18 18 17 15 14 17 19 16 13 13 14 14 14 14 13 13 12 12 12 12 11 10 10 7 7
21 21 21 20 19 19 19 19 21 21 22 22 21 20 20 17 17 15 15 14 16 15 15 18 18 17 14 14 14 14 13 12 11 11 11 11 10 10 10 10 10 9 7 7
20 17 18 20 18 17 16 16 18 16 16 18 19 17 16 15 15 16 16 16 16 15 15 14 14 14 13 13 14 14 13 12 13 12 12 10 8 9 8 8 8 9 9 10
18 17 16 18 17 17 17 17 17 16 15 15 17 15 15 16 17 16 15 15 14 14 14 14 14 14 13 13 13 12 12 10 9 8 9 9 8 7 8 8 9 9 9 8
Wind_Direction
243 218 236 250 244 213 209 205 215 224 222 229 224 242 230 246 230 216 206 202 196 157 161 159 167 177 176 176 183 189 194 181 179 167 173 167 159 151 140 139 139 138 133 131
259 226 222 230 256 243 232 232 230 227 234 224 237 242 246 266 242 217 212 208 201 165 159 164 159 151 138 169 167 152 149 150 142 145 151 151 140 134 134 136 134 133 138 141
253 276 240 235 219 242 232 203 205 230 233 244 247 252 240 238 224 212 218 209 195 178 177 176 172 159 158 154 148 144 143 144 147 147 145 142 136 140 139 138 136 139 142 143
285 250 235 248 211 240 246 247 241 235 244 244 240 252 258 230 220 217 215 201 191 189 176 171 159 148 140 145 147 148 149 147 147 148 145 145 146 142 143 146 148 148 146 142
267 232 246 235 223 211 221 251 235 240 255 228 237 222 227 237 213 218 203 194 187 185 150 144 148 145 142 146 150 151 155 155 157 156 152 151 149 149 148 141 139 138 136 132
263 281 226 226 216 213 354 259 242 215 225 256 174 228 228 211 189 167 156 161 158 144 134 138 149 149 149 155 158 164 161 162 153 153 150 148 145 144 142 142 139 136 128 128
246 271 267 258 303 238 224 241 13 49 39 325 256 230 241 182 175 160 158 157 149 154 163 158 152 150 154 158 166 158 149 145 141 146 144 144 143 144 139 130 127 130 124 114
124 284 243 222 23 141 305 262 50 20 18 318 239 267 198 177 165 164 165 153 159 155 155 151 153 150 151 157 142 138 139 138 138 140 145 148 140 132 132 135 132 129 125 117
175 225 243 190 130 136 339 342 343 19 1 356 287 207 177 187 174 176 166 161 155 152 149 150 153 152 150 144 139 138 138 139 138 135 137 139 143 139 131 133 137 140 138 134
219 248 249 257 256 202 220 275 280 349 351 333 282 264 218 176 177 179 174 166 154 147 153 156 151 144 142 141 139 134 132 131 129 130 117 107 107 126 141 142 140 143 144 143
240 239 272 295 218 256 268 287 300 50 335 323 320 279 240 209 195 178 171 161 156 154 154 151 140 137 138 135 130 127 122 117 108 104 104 94 71 73 102 70 132 142 138 146
234 208 210 213 323 289 254 216 155 138 291 311 317 284 252 232 197 171 158 151 149 141 137 133 130 128 128 130 130 128 120 117 117 112 103 103 104 86 63 75 83 91 103 124
349 323 229 235 237 236 224 232 217 351 242 220 298 268 244 221 174 145 145 142 137 129 120 117 114 112 115 120 124 127 125 121 113 111 110 114 111 116 115 75 77 86 97 108
351 355 12 322 308 118 131 135 145 149 19 6 326 265 180 140 124 125 124 114 112 104 95 99 97 90 101 107 102 101 100 100 103 103 106 105 106 105 108 123 134 133 118 131
348 351 3 17 17 60 74 66 54 36 25 35 42 71 108 105 97 95 96 97 93 93 93 87 82 73 79 92 94 93 92 89 90 87 86 93 101 112 121 134 151 174 170 176
334 358 15 26 20 34 38 34 63 52 61 57 62 66 75 84 84 78 74 82 100 94 87 88 82 79 83 88 90 87 88 99 108 114 112 103 100 108 129 139 134 142 165 170
4 4 2 16 26 28 30 31 55 68 73 77 76 79 83 85 82 79 79 78 79 81 77 78 85 77 71 77 87 94 99 94 93 90 93 99 106 110 114 121 125 116 133 152
24 24 25 31 38 35 42 49 54 64 73 78 80 79 79 81 89 90 87 85 79 69 62 68 74 75 76 78 78 79 82 82 83 88 86 80 81 83 94 93 82 113 111 142
40 47 41 49 59 66 63 65 69 72 72 81 83 85 88 88 87 84 82 78 76 76 60 69 71 71 70 70 73 73 78 83 81 80 81 74 58 71 83 82 88 95 61 30
55 59 61 61 57 63 70 69 74 73 75 80 83 82 78 76 79 80 78 73 70 79 74 68 68 67 68 64 66 69 70 68 68 69 61 54 59 54 37 38 42 44 49 66
54 56 58 62 63 60 62 67 75 74 75 78 83 83 83 80 79 84 83 81 67 70 72 68 67 63 65 71 72 72 70 66 60 54 52 49 46 44 41 41 43 57 81 55
60 62 62 66 67 65 61 65 69 72 72 74 75 78 81 80 82 77 70 83 75 69 68 63 54 53 64 62 61 61 59 57 53 48 44 39 35 31 27 17 359 1 7 26
65 65 65 66 70 71 66 63 65 67 68 68 71 75 76 74 74 89 85 72 78 72 68 61 56 62 63 63 62 62 61 62 60 54 52 51 51 49 38 23 10 352 338 350
62 64 69 70 72 71 69 65 67 67 69 67 63 63 75 81 76 75 82 80 79 75 70 67 70 69 66 61 59 60 60 55 56 60 63 58 48 41 33 24 22 17 18 23
55 52 52 55 60 64 68 69 69 66 68 66 64 64 66 62 81 88 82 81 77 74 69 65 64 62 62 63 63 63 64 65 65 69 66 58 49 43 42 45 46 38 21 1
59 60 58 53 55 57 59 66 68 62 68 66 56 52 63 65 72 72 70 69 71 70 67 61 60 58 56 58 58 55 55 58 62 53 46 36 43 53 45 30 14 359 342 328
57 59 60 57 51 55 61 65 70 65 62 68 66 47 55 64 69 69 67 68 70 72 71 66 65 64 61 53 50 68 72 67 52 40 33 40 55 26 9 355 343 338 346 7